Stündliche Wetter Otowice

Heute, 14 April, Mittwoch

Zeit Temperatur Niederschläge Wind Luftdruck Luftfeuchtigkeit
00:00 +3°C° 0 mm 2 m/S 760 mmHg 72%
01:00 +3°C° 0 mm 2 m/S 760 mmHg 72%
02:00 +3°C° 0 mm 2 m/S 760 mmHg 73%
03:00 +3°C° 0 mm 2 m/S 760 mmHg 73%
04:00 +2°C° 0 mm 2 m/S 759 mmHg 74%
05:00 +3°C° 0 mm 2 m/S 760 mmHg 74%
06:00 +3°C° 0 mm 2 m/S 760 mmHg 74%
07:00 +2°C° 0 mm 3 m/S 760 mmHg 74%
08:00 +3°C° 0 mm 3 m/S 760 mmHg 69%
09:00 +4°C° 0 mm 3 m/S 760 mmHg 65%
10:00 +5°C° 0 mm 3 m/S 760 mmHg 60%
11:00 +5°C° 0 mm 4 m/S 760 mmHg 56%
12:00 +6°C° 0 mm 4 m/S 759 mmHg 52%
13:00 +6°C° 0 mm 5 m/S 759 mmHg 48%
14:00 +6°C° 0 mm 5 m/S 759 mmHg 51%
15:00 +6°C° 0 mm 5 m/S 759 mmHg 54%
16:00 +6°C° 0 mm 5 m/S 759 mmHg 57%
17:00 +5°C° 0 mm 5 m/S 759 mmHg 60%
18:00 +4°C° 0 mm 4 m/S 760 mmHg 62%
19:00 +3°C° 0 mm 4 m/S 760 mmHg 65%
20:00 +3°C° 0 mm 4 m/S 760 mmHg 67%
21:00 +3°C° 0 mm 4 m/S 760 mmHg 68%
22:00 +1°C° 0 mm 4 m/S 760 mmHg 70%
23:00 +1°C° 0 mm 4 m/S 760 mmHg 73%

Morgen, 15 April, Donnerstag

Zeit Temperatur Niederschläge Wind Luftdruck Luftfeuchtigkeit
00:00 +1°C° 0 mm 5 m/S 760 mmHg 77%
01:00 +1°C° 0 mm 5 m/S 759 mmHg 80%
02:00 +1°C° 0.1 mm 5 m/S 759 mmHg 85%
03:00 0°C° 0.1 mm 5 m/S 759 mmHg 90%
04:00 0°C° 0.1 mm 5 m/S 759 mmHg 95%
05:00 -1°C° 0.1 mm 6 m/S 759 mmHg 94%
06:00 -1°C° 0.1 mm 6 m/S 759 mmHg 93%
07:00 -1°C° 0.1 mm 7 m/S 758 mmHg 92%
08:00 -1°C° 0.5 mm 6 m/S 758 mmHg 93%
09:00 -1°C° 0.5 mm 6 m/S 758 mmHg 94%
10:00 -1°C° 0.5 mm 6 m/S 758 mmHg 96%
11:00 -1°C° 0.7 mm 6 m/S 758 mmHg 96%
12:00 -1°C° 0.7 mm 6 m/S 758 mmHg 96%
13:00 -1°C° 0.7 mm 6 m/S 758 mmHg 96%
14:00 +1°C° 0.9 mm 6 m/S 757 mmHg 96%
15:00 +1°C° 0.9 mm 5 m/S 757 mmHg 96%
16:00 +1°C° 0.9 mm 5 m/S 757 mmHg 96%
17:00 +2°C° 0.6 mm 5 m/S 757 mmHg 94%
18:00 +2°C° 0.6 mm 5 m/S 757 mmHg 93%
19:00 +3°C° 0.6 mm 5 m/S 757 mmHg 92%
20:00 +3°C° 0.1 mm 5 m/S 757 mmHg 92%
21:00 +3°C° 0.1 mm 5 m/S 757 mmHg 92%
22:00 +3°C° 0.1 mm 5 m/S 757 mmHg 91%
23:00 +3°C° 0.1 mm 5 m/S 757 mmHg 91%

übermorgen, 16 April, Freitag

Zeit Temperatur Niederschläge Wind Luftdruck Luftfeuchtigkeit
00:00 +4°C° 0.1 mm 4 m/S 757 mmHg 92%
01:00 +3°C° 0.1 mm 4 m/S 757 mmHg 92%
02:00 +3°C° 0.1 mm 4 m/S 757 mmHg 91%
03:00 +3°C° 0.1 mm 4 m/S 757 mmHg 90%
04:00 +2°C° 0.1 mm 3 m/S 757 mmHg 89%
05:00 +1°C° 0.3 mm 4 m/S 757 mmHg 92%
06:00 +1°C° 0.3 mm 4 m/S 757 mmHg 94%
07:00 +1°C° 0.3 mm 4 m/S 757 mmHg 97%
08:00 +1°C° 0.2 mm 4 m/S 757 mmHg 96%
09:00 +1°C° 0.2 mm 4 m/S 757 mmHg 96%
10:00 +2°C° 0.2 mm 3 m/S 758 mmHg 96%
11:00 +3°C° 0.1 mm 3 m/S 758 mmHg 95%
12:00 +3°C° 0.1 mm 3 m/S 758 mmHg 94%
13:00 +3°C° 0.1 mm 3 m/S 758 mmHg 93%
14:00 +3°C° 0.1 mm 3 m/S 758 mmHg 93%
15:00 +3°C° 0.1 mm 3 m/S 758 mmHg 94%
16:00 +3°C° 0.1 mm 3 m/S 758 mmHg 94%
17:00 +3°C° 0.2 mm 3 m/S 758 mmHg 95%
18:00 +3°C° 0.2 mm 3 m/S 758 mmHg 95%
19:00 +3°C° 0.2 mm 3 m/S 758 mmHg 96%
20:00 +3°C° 0.1 mm 3 m/S 758 mmHg 96%
21:00 +4°C° 0.1 mm 3 m/S 759 mmHg 96%
22:00 +4°C° 0.1 mm 3 m/S 759 mmHg 96%
23:00 +4°C° 0 mm 3 m/S 758 mmHg 97%

17 April, Samstag

Zeit Temperatur Niederschläge Wind Luftdruck Luftfeuchtigkeit
00:00 +5°C° 0 mm 2 m/S 758 mmHg 97%
01:00 +5°C° 0 mm 2 m/S 758 mmHg 98%
02:00 +5°C° 0 mm 2 m/S 758 mmHg 98%
03:00 +5°C° 0 mm 2 m/S 758 mmHg 98%
04:00 +5°C° 0 mm 2 m/S 758 mmHg 97%
05:00 +6°C° 0 mm 2 m/S 758 mmHg 96%
06:00 +5°C° 0 mm 3 m/S 758 mmHg 95%
07:00 +5°C° 0 mm 3 m/S 758 mmHg 94%
08:00 +7°C° 0.1 mm 3 m/S 758 mmHg 93%
09:00 +7°C° 0.1 mm 3 m/S 758 mmHg 93%
10:00 +7°C° 0.1 mm 3 m/S 758 mmHg 92%
11:00 +8°C° 0.2 mm 3 m/S 758 mmHg 92%
12:00 +8°C° 0.2 mm 3 m/S 758 mmHg 92%
13:00 +8°C° 0.2 mm 3 m/S 758 mmHg 92%
14:00 +9°C° 0 mm 3 m/S 758 mmHg 88%
15:00 +10°C° 0 mm 3 m/S 758 mmHg 84%
16:00 +11°C° 0 mm 3 m/S 758 mmHg 80%
17:00 +10°C° 0 mm 3 m/S 758 mmHg 84%
18:00 +9°C° 0 mm 3 m/S 758 mmHg 88%
19:00 +8°C° 0 mm 3 m/S 758 mmHg 91%
20:00 +8°C° 0.1 mm 3 m/S 758 mmHg 92%
21:00 +8°C° 0.1 mm 3 m/S 758 mmHg 93%
22:00 +8°C° 0.1 mm 3 m/S 758 mmHg 94%
23:00 +7°C° 0.2 mm 3 m/S 758 mmHg 95%

18 April, Sonntag

Zeit Temperatur Niederschläge Wind Luftdruck Luftfeuchtigkeit
00:00 +7°C° 0.2 mm 3 m/S 758 mmHg 96%
01:00 +7°C° 0.2 mm 3 m/S 758 mmHg 96%
02:00 +7°C° 0.1 mm 3 m/S 758 mmHg 96%
03:00 +5°C° 0.1 mm 3 m/S 758 mmHg 96%
04:00 +4°C° 0.1 mm 3 m/S 758 mmHg 96%
05:00 +5°C° 0 mm 3 m/S 758 mmHg 93%
06:00 +7°C° 0 mm 3 m/S 758 mmHg 90%
07:00 +7°C° 0 mm 3 m/S 758 mmHg 87%
08:00 +9°C° 0 mm 3 m/S 758 mmHg 81%
09:00 +10°C° 0 mm 3 m/S 758 mmHg 75%
10:00 +11°C° 0 mm 3 m/S 758 mmHg 69%
11:00 +12°C° 0.1 mm 3 m/S 758 mmHg 65%
12:00 +12°C° 0.1 mm 4 m/S 758 mmHg 61%
13:00 +13°C° 0.1 mm 4 m/S 758 mmHg 57%
14:00 +13°C° 0.1 mm 4 m/S 758 mmHg 58%
15:00 +12°C° 0.1 mm 4 m/S 758 mmHg 59%
16:00 +12°C° 0.1 mm 4 m/S 758 mmHg 61%
17:00 +11°C° 0 mm 3 m/S 758 mmHg 67%
18:00 +10°C° 0 mm 3 m/S 758 mmHg 73%
19:00 +9°C° 0 mm 2 m/S 758 mmHg 79%
20:00 +9°C° 0 mm 2 m/S 758 mmHg 81%
21:00 +9°C° 0 mm 2 m/S 758 mmHg 82%
22:00 +8°C° 0 mm 2 m/S 758 mmHg 83%
23:00 +8°C° 0 mm 2 m/S 758 mmHg 85%

19 April, Montag

Zeit Temperatur Niederschläge Wind Luftdruck Luftfeuchtigkeit
00:00 +7°C° 0 mm 2 m/S 758 mmHg 86%
01:00 +7°C° 0 mm 2 m/S 758 mmHg 88%
02:00 +7°C° 0 mm 2 m/S 758 mmHg 88%
03:00 +7°C° 0 mm 2 m/S 758 mmHg 88%
04:00 +7°C° 0 mm 2 m/S 758 mmHg 89%
05:00 +7°C° 0.2 mm 2 m/S 758 mmHg 89%
06:00 +8°C° 0.2 mm 2 m/S 757 mmHg 89%
07:00 +8°C° 0.2 mm 2 m/S 757 mmHg 90%
08:00 +8°C° 0.3 mm 2 m/S 757 mmHg 90%
09:00 +9°C° 0.3 mm 2 m/S 757 mmHg 90%
10:00 +9°C° 0.3 mm 2 m/S 757 mmHg 91%
11:00 +10°C° 0.2 mm 3 m/S 757 mmHg 88%
12:00 +10°C° 0.2 mm 3 m/S 756 mmHg 85%
13:00 +11°C° 0.2 mm 4 m/S 756 mmHg 82%
14:00 +10°C° 0.6 mm 3 m/S 756 mmHg 85%
15:00 +9°C° 0.6 mm 3 m/S 756 mmHg 89%
16:00 +9°C° 0.6 mm 3 m/S 756 mmHg 92%
17:00 +8°C° 0.3 mm 3 m/S 756 mmHg 93%
18:00 +8°C° 0.3 mm 2 m/S 756 mmHg 94%
19:00 +8°C° 0.3 mm 2 m/S 756 mmHg 95%
20:00 +8°C° 0.1 mm 2 m/S 756 mmHg 95%
21:00 +8°C° 0.1 mm 2 m/S 756 mmHg 95%
22:00 +8°C° 0.1 mm 2 m/S 756 mmHg 95%
23:00 +8°C° 0 mm 2 m/S 755 mmHg 96%
Mehr zeigen

Wir brauchen deine Erlaubnis

Meteoprog und unser Service Anbieter werden persönliche Daten aufbewahren, so wie Cookies, Geräte Bezeichnung oder ähnliche Technologien von deinem Gerät und Prozess, so wie Persönliche Daten Inhalte und Werbungen, genauso wie social Media und den Verkehr zu analysieren.

  • Aufbewahrung und/oder Zugang zu deiner Geräte Informationen.

    Cookies, Geräte Bezeichnung oder andere Informationen, können aufbewahrt oder Zugang zu deinem Gerät erhalten, für den Grund, der oben angegeben wird.

  • Personalisierte Werbung und Inhalte, Messungen, Einblick in das Publikum und Produkt Entwicklung.

    Werbungen und Inhalte können personalisiert werden, basierend auf ein Profil. Mehr Daten können besser personalisierte Werbungen und Inhalte hinzufügen. Werbung und Inhalte können gezeigt und gemessen werden. Einblicke über das Publikum, welche die Werbung gesehen haben und den Inhalt, können abgeleitet werden. So wie Daten können genutzt werden, um es zu verbessern oder die Benutzer Erfahrung zu verbessern das System und die Software.

Wenn du “Ich stimme zu” klickst, erlaubst du uns, die Cookies zu benutzen die Geräte Bezeichnung, den Web oder ähnliche Technologien zu benutzen. Deine Settings, können in deinem Gerät bei deinem Browser geändert werden.

Für den bestimmten Zweck, berechtigten Interessen beruhen darauf, mehr als auf den Inhalt. Du kannst mehr darüber in unseren Privaten und Cookie Politik lesen.